| time (UTC) | temp F | wind direction | speed MPH | gust MPH | rain 1hr in | rain 24hr in | rain mn in | humidity % | barometer mb |
| 20260506214529 | 71 | 303 | 0.0 | 3.0 | 0.00 | 0.01 | 0.01 | 72 | 1009.4 |
| 20260506213027 | 73 | 37 | 0.0 | 3.0 | 0.00 | 0.01 | 0.01 | 70 | 1009.1 |
| 20260506211528 | 74 | 52 | 0.0 | 4.0 | 0.00 | 0.01 | 0.01 | 70 | 1009.1 |
| 20260506210032 | 75 | 29 | 0.0 | 3.0 | 0.00 | 0.01 | 0.01 | 70 | 1009.0 |
| 20260506204524 | 75 | 258 | 0.0 | 3.0 | 0.00 | 0.01 | 0.01 | 72 | 1009.2 |
| 20260506203023 | 75 | 354 | 1.0 | 8.0 | 0.00 | 0.01 | 0.01 | 72 | 1009.4 |
| 20260506201525 | 75 | 81 | 0.0 | 3.0 | 0.00 | 0.01 | 0.01 | 75 | 1009.4 |
| 20260506200035 | 75 | 70 | 0.0 | 1.0 | 0.00 | 0.01 | 0.01 | 74 | 1009.1 |
| 20260506194522 | 79 | 41 | 0.0 | 2.0 | 0.00 | 0.01 | 0.01 | 71 | 1008.7 |
| 20260506193022 | 81 | 43 | 0.0 | 1.0 | 0.00 | 0.01 | 0.01 | 70 | 1008.7 |
| 20260506191518 | 81 | 338 | 0.0 | 1.0 | 0.00 | 0.01 | 0.01 | 73 | 1008.8 |
| 20260506190017 | 80 | 35 | 0.0 | 1.0 | 0.00 | 0.01 | 0.01 | 74 | 1009.1 |
| 20260506184513 | 79 | 246 | 0.0 | 1.0 | 0.00 | 0.01 | 0.01 | 73 | 1009.0 |
| 20260506183010 | 78 | 52 | 0.0 | 1.0 | 0.00 | 0.01 | 0.01 | 75 | 1009.0 |
| 20260506181513 | 77 | 6 | 0.0 | 0.0 | 0.00 | 0.01 | 0.01 | 77 | 1009.2 |
| 20260506180013 | 75 | 76 | 0.0 | 0.0 | 0.00 | 0.01 | 0.01 | 79 | 1009.0 |
| 20260506174601 | 74 | 348 | 0.0 | 1.0 | 0.00 | 0.01 | 0.01 | 81 | 1009.2 |
| 20260506173112 | 72 | 49 | 0.0 | 0.0 | 0.00 | 0.01 | 0.01 | 84 | 1009.3 |
| 20260506171610 | 70 | 239 | 0.0 | 1.0 | 0.00 | 0.01 | 0.01 | 86 | 1009.4 |
| 20260506170108 | 70 | 243 | 0.0 | 0.0 | 0.00 | 0.01 | 0.01 | 90 | 1009.4 |
| 20260506164623 | 67 | 34 | 0.0 | 0.0 | 0.00 | 0.01 | 0.01 | 94 | 1009.6 |
| 20260506163102 | 68 | 38 | 0.0 | 3.0 | 0.00 | 0.01 | 0.01 | 90 | 1010.2 |
| 20260506161553 | 71 | 69 | 0.0 | 3.0 | 0.01 | 0.01 | 0.01 | 88 | 1010.4 |
| 20260506160104 | 75 | 18 | 0.0 | 0.0 | 0.01 | 0.01 | 0.01 | 95 | 1009.6 |
| 20260506154552 | 75 | 18 | 0.0 | 0.0 | 0.01 | 0.01 | 0.01 | 94 | 1009.6 |
| 20260506153045 | 75 | 18 | 0.0 | 0.0 | 0.01 | 0.01 | 0.01 | 93 | 1009.2 |
| 20260506151543 | 76 | 18 | 0.0 | 0.0 | 0.00 | 0.00 | 0.00 | 92 | 1008.9 |
| 20260506150040 | 76 | 18 | 0.0 | 0.0 | 0.00 | 0.00 | 0.00 | 92 | 1008.5 |
| 20260506144539 | 76 | 22 | 0.0 | 0.0 | 0.00 | 0.00 | 0.00 | 92 | 1008.2 |
| 20260506143039 | 75 | 298 | 0.0 | 0.0 | 0.00 | 0.00 | 0.00 | 92 | 1007.9 |
| 20260506141552 | 75 | 160 | 0.0 | 0.0 | 0.00 | 0.00 | 0.00 | 92 | 1007.9 |
| 20260506140040 | 75 | 160 | 0.0 | 0.0 | 0.00 | 0.00 | 0.00 | 93 | 1008.1 |
| 20260506134533 | 75 | 160 | 0.0 | 0.0 | 0.00 | 0.00 | 0.00 | 93 | 1007.2 |
| 20260506133032 | 75 | 152 | 0.0 | 0.0 | 0.00 | 0.00 | 0.00 | 94 | 1007.2 |
| 20260506131535 | 74 | 234 | 0.0 | 0.0 | 0.00 | 0.00 | 0.00 | 94 | 1007.3 |
| 20260506130030 | 74 | 195 | 0.0 | 0.0 | 0.00 | 0.00 | 0.00 | 94 | 1007.1 |
| 20260506124531 | 74 | 123 | 0.0 | 0.0 | 0.00 | 0.00 | 0.00 | 95 | 1007.0 |
| 20260506123038 | 74 | 126 | 0.0 | 0.0 | 0.00 | 0.00 | 0.00 | 94 | 1007.0 |
| 20260506121527 | 74 | 126 | 0.0 | 0.0 | 0.00 | 0.00 | 0.00 | 94 | 1007.1 |
| 20260506120036 | 74 | 126 | 0.0 | 0.0 | 0.00 | 0.00 | 0.00 | 94 | 1006.9 |
| 20260506114526 | 74 | 92 | 0.0 | 0.0 | 0.00 | 0.00 | 0.00 | 94 | 1006.9 |
| 20260506113026 | 74 | 92 | 0.0 | 0.0 | 0.00 | 0.00 | 0.00 | 94 | 1006.8 |
| 20260506111524 | 74 | 92 | 0.0 | 0.0 | 0.00 | 0.00 | 0.00 | 94 | 1006.9 |
| 20260506110025 | 74 | 92 | 0.0 | 0.0 | 0.00 | 0.00 | 0.00 | 94 | 1006.7 |
| 20260506104519 | 74 | 92 | 0.0 | 0.0 | 0.00 | 0.00 | 0.00 | 94 | 1006.5 |
| 20260506103026 | 74 | 92 | 0.0 | 0.0 | 0.00 | 0.00 | 0.00 | 94 | 1006.3 |
| 20260506101520 | 74 | 88 | 0.0 | 0.0 | 0.00 | 0.00 | 0.00 | 94 | 1006.1 |
| 20260506100018 | 74 | 84 | 0.0 | 0.0 | 0.00 | 0.00 | 0.00 | 94 | 1006.0 |
| 20260506094529 | 74 | 153 | 0.0 | 0.0 | 0.00 | 0.00 | 0.00 | 94 | 1006.0 |
| 20260506093026 | 74 | 131 | 0.0 | 0.0 | 0.00 | 0.00 | 0.00 | 94 | 1005.8 |
| 20260506091515 | 74 | 351 | 0.0 | 0.0 | 0.00 | 0.00 | 0.00 | 94 | 1005.8 |
| 20260506090015 | 74 | 124 | 0.0 | 0.0 | 0.00 | 0.00 | 0.00 | 94 | 1005.7 |
| 20260506084513 | 74 | 121 | 0.0 | 1.0 | 0.00 | 0.00 | 0.00 | 93 | 1005.6 |
| 20260506083012 | 75 | 79 | 0.0 | 0.0 | 0.00 | 0.00 | 0.00 | 93 | 1005.6 |
| 20260506081510 | 75 | 122 | 0.0 | 0.0 | 0.00 | 0.00 | 0.00 | 92 | 1005.7 |
| 20260506073006 | 75 | 115 | 0.0 | 0.0 | 0.00 | 0.00 | 0.00 | 92 | 1006.1 |
| 20260506071507 | 75 | 84 | 0.0 | 2.0 | 0.00 | 0.00 | 0.00 | 92 | 1006.2 |
| 20260506061502 | 75 | 330 | 0.0 | 1.0 | 0.00 | 0.00 | 0.00 | 92 | 1006.4 |
| 20260506050105 | 75 | 219 | 0.0 | 1.0 | 0.00 | 0.00 | 0.00 | 90 | 1006.5 |
| 20260506044601 | 75 | 180 | 0.0 | 1.0 | 0.00 | 0.00 | 0.00 | 90 | 1006.3 |
| 20260506043054 | 76 | 333 | 0.0 | 0.0 | 0.00 | 0.00 | 0.00 | 90 | 1006.5 |
| 20260506041556 | 76 | 150 | 0.0 | 0.0 | 0.00 | 0.00 | 0.00 | 90 | 1006.2 |
| 20260506040053 | 76 | 122 | 0.0 | 0.0 | 0.00 | 0.00 | 0.00 | 90 | 1006.1 |
| 20260506034553 | 76 | 160 | 0.0 | 1.0 | 0.00 | 0.00 | 0.00 | 89 | 1006.0 |
| 20260506033052 | 76 | 129 | 0.0 | 0.0 | 0.00 | 0.00 | 0.00 | 90 | 1005.6 |
| 20260506031600 | 76 | 124 | 0.0 | 0.0 | 0.00 | 0.00 | 0.00 | 90 | 1005.5 |
| 20260506030109 | 76 | 314 | 0.0 | 1.0 | 0.00 | 0.00 | 0.00 | 89 | 1005.3 |
| 20260506024551 | 77 | 102 | 0.0 | 1.0 | 0.00 | 0.00 | 0.00 | 88 | 1005.2 |
| 20260506023050 | 77 | 231 | 0.0 | 1.0 | 0.00 | 0.00 | 0.00 | 88 | 1004.9 |
| 20260506021549 | 77 | 134 | 0.0 | 1.0 | 0.00 | 0.00 | 0.00 | 87 | 1004.3 |
| 20260506020049 | 77 | 205 | 0.0 | 0.0 | 0.00 | 0.00 | 0.00 | 86 | 1004.2 |
| 20260506014555 | 77 | 217 | 0.0 | 0.0 | 0.00 | 0.00 | 0.00 | 85 | 1004.1 |
| 20260506013050 | 78 | 84 | 0.0 | 0.0 | 0.00 | 0.00 | 0.00 | 84 | 1004.0 |
| 20260506011554 | 79 | 298 | 0.0 | 0.0 | 0.00 | 0.00 | 0.00 | 83 | 1004.2 |
| 20260506010051 | 80 | 298 | 0.0 | 0.0 | 0.00 | 0.00 | 0.00 | 81 | 1004.2 |
| 20260506004621 | 80 | 298 | 0.0 | 0.0 | 0.00 | 0.00 | 0.00 | 80 | 1004.1 |
| 20260506003045 | 81 | 120 | 0.0 | 0.0 | 0.00 | 0.00 | 0.00 | 79 | 1003.9 |
| 20260506001545 | 81 | 133 | 0.0 | 1.0 | 0.00 | 0.00 | 0.00 | 78 | 1003.9 |
| 20260506000046 | 82 | 96 | 0.0 | 1.0 | 0.00 | 0.00 | 0.00 | 76 | 1003.8 |
| 20260505234645 | 82 | 138 | 0.0 | 0.0 | 0.00 | 0.00 | 0.00 | 74 | 1003.7 |
| 20260505233043 | 83 | 134 | 0.0 | 0.0 | 0.00 | 0.00 | 0.00 | 75 | 1003.6 |
| 20260505231542 | 83 | 150 | 0.0 | 3.0 | 0.00 | 0.00 | 0.00 | 74 | 1003.7 |
| 20260505230045 | 83 | 271 | 0.0 | 1.0 | 0.00 | 0.00 | 0.00 | 74 | 1003.5 |
| 20260505224541 | 83 | 236 | 0.0 | 2.0 | 0.00 | 0.00 | 0.00 | 74 | 1003.4 |
| 20260505223056 | 83 | 151 | 0.0 | 0.0 | 0.00 | 0.00 | 0.00 | 75 | 1003.5 |
| 20260505221555 | 84 | 212 | 0.0 | 1.0 | 0.00 | 0.00 | 0.00 | 70 | 1003.4 |
| 20260505220038 | 84 | 146 | 0.0 | 2.0 | 0.00 | 0.00 | 0.00 | 71 | 1003.6 |